Dilworth, MN

12:11 PM CST on February 22, 2017 (GMT -0600)
Moorhead Municipal

Weather History for KJKJ - October, 2012

Change the Weather History Date:

Sunday, October 21, 2012

  Actual Average (KFAR) Record (KFAR)
Temperature  
Mean Temperature 50 °F -  
Max Temperature 57 °F 54 °F 87 °F (1947)
Min Temperature 42 °F 33 °F 11 °F (1913)
Degree Days  
Heating Degree Days 16    
Moisture  
Dew Point 47 °F    
Average Humidity 96    
Maximum Humidity 100    
Minimum Humidity 82    
Precipitation  
Precipitation 0.00 in - - ()
Sea Level Pressure  
Sea Level Pressure 29.83 in    
Wind  
Wind Speed 10 mph (NNE)    
Max Wind Speed 23 mph    
Max Gust Speed 28 mph    
Visibility 10 miles    
Events Rain    
Averages and records for this station are not official NWS values.
T = Trace of Precipitation, MM = Missing Value Source: NWS Daily Summary

Daily Weather History Graph

Daily Weather History Graph

Search for Another Location

Airport or City:

Trip Planner

Search our weather history database for the weather conditions in past years. The results will help you decide how hot, cold, wet, or windy it might be!

Date:

Astronomy

Oct. 21, 2012 Rise Set
Actual Time 7:53 AM CDT 6:27 PM CDT
Civil Twilight 7:22 AM CDT 6:58 PM CDT
Nautical Twilight 6:47 AM CDT 7:34 PM CDT
Astronomical Twilight 6:12 AM CDT 8:09 PM CDT
Moon 2:22 PM CDT (10/21) No Moon Set
Length of Visible Light 11h 36m
Length of Day
10h 34m
Waxing Crescent, 45% of the Moon is Illuminated
Oct 21
Waxing Crescent
Oct 21
First Quarter
Oct 29
Full
Nov 6
Last Quarter
Nov 13
New

Hourly Weather History & Observations

Time (CDT) Temp. Windchill Dew Point Humidity Pressure Visibility Wind Dir Wind Speed Gust Speed Precip Events Conditions
12:35 AM 48.2 °F - 48.2 °F 100% 29.71 in 10.0 mi South 10.4 mph - N/A   Clear
12:54 AM 48.2 °F - 48.2 °F 100% 29.69 in 10.0 mi SSE 10.4 mph - N/A Rain Light Rain
1:15 AM 48.2 °F - 48.2 °F 100% 29.69 in 10.0 mi SSE 12.7 mph 17.3 mph N/A   Scattered Clouds
1:35 AM 48.2 °F - 48.2 °F 100% 29.69 in 10.0 mi South 15.0 mph - N/A   Clear
1:54 AM 48.2 °F - 48.2 °F 100% 29.69 in 10.0 mi South 12.7 mph - N/A   Clear
2:15 AM 48.2 °F - 46.4 °F 93% 29.71 in 10.0 mi South 10.4 mph 16.1 mph N/A   Clear
2:35 AM 48.2 °F - 46.4 °F 93% 29.71 in 10.0 mi South 10.4 mph - N/A   Clear
2:54 AM 48.2 °F - 46.4 °F 93% 29.71 in 10.0 mi South 9.2 mph - N/A   Clear
3:15 AM 48.2 °F - 48.2 °F 100% 29.72 in 10.0 mi South 8.1 mph - N/A   Clear
3:34 AM 48.2 °F - 46.4 °F 93% 29.72 in 10.0 mi South 6.9 mph - N/A   Clear
3:55 AM 46.4 °F 42.9 °F 46.4 °F 100% 29.73 in 10.0 mi South 6.9 mph - N/A   Clear
4:15 AM 46.4 °F 45.2 °F 46.4 °F 100% 29.72 in 10.0 mi South 3.5 mph - N/A   Clear
4:34 AM 46.4 °F 44.3 °F 46.4 °F 100% 29.73 in 10.0 mi South 4.6 mph - N/A   Clear
4:55 AM 46.4 °F 42.9 °F 46.4 °F 100% 29.72 in 10.0 mi SSE 6.9 mph - N/A   Clear
5:15 AM 46.4 °F 43.5 °F 46.4 °F 100% 29.71 in 10.0 mi SSE 5.8 mph - N/A   Clear
5:35 AM 46.4 °F 43.5 °F 46.4 °F 100% 29.72 in 10.0 mi SSE 5.8 mph - N/A   Clear
5:55 AM 46.4 °F 44.3 °F 46.4 °F 100% 29.72 in 10.0 mi SSE 4.6 mph - N/A   Clear
6:15 AM 46.4 °F 44.3 °F 46.4 °F 100% 29.73 in 10.0 mi South 4.6 mph - N/A   Clear
6:35 AM 46.4 °F - 46.4 °F 100% 29.73 in 10.0 mi Calm Calm - N/A   Clear
6:55 AM 44.6 °F 43.1 °F 44.6 °F 100% 29.73 in 10.0 mi SE 3.5 mph - N/A   Clear
7:15 AM 44.6 °F 43.1 °F 44.6 °F 100% 29.73 in 10.0 mi SE 3.5 mph - N/A   Clear
7:35 AM 44.6 °F 42.2 °F 44.6 °F 100% 29.73 in 10.0 mi SE 4.6 mph - N/A   Clear
7:55 AM 44.6 °F 41.4 °F 44.6 °F 100% 29.74 in 7.0 mi North 5.8 mph - N/A   Clear
8:14 AM 44.6 °F - 44.6 °F 100% 29.74 in 5.0 mi Calm Calm - N/A   Clear
8:35 AM 42.8 °F 39.3 °F 42.8 °F 100% 29.76 in 4.0 mi North 5.8 mph - N/A   Clear
8:55 AM 44.6 °F 41.4 °F 44.6 °F 100% 29.76 in 5.0 mi North 5.8 mph - N/A   Clear
9:14 AM 44.6 °F - 44.6 °F 100% 29.76 in 5.0 mi Calm Calm - N/A   Clear
9:35 AM 46.4 °F - 46.4 °F 100% 29.76 in 7.0 mi Calm Calm - N/A   Clear
9:55 AM 48.2 °F - 48.2 °F 100% 29.76 in 10.0 mi Calm Calm - N/A   Clear
10:15 AM 48.2 °F - 48.2 °F 100% 29.78 in 10.0 mi NNW 3.5 mph - N/A   Clear
10:35 AM 50.0 °F - 48.2 °F 94% 29.79 in 10.0 mi Calm Calm - N/A   Clear
10:55 AM 51.8 °F - 48.2 °F 88% 29.79 in 10.0 mi NNW 5.8 mph - N/A   Clear
11:15 AM 51.8 °F - 48.2 °F 88% 29.79 in 10.0 mi NW 4.6 mph - N/A   Clear
11:35 AM 51.8 °F - 48.2 °F 88% 29.80 in 10.0 mi NW 9.2 mph - N/A   Mostly Cloudy
11:55 AM 51.8 °F - 48.2 °F 88% 29.81 in 10.0 mi NW 8.1 mph - N/A   Scattered Clouds
12:15 PM 51.8 °F - 48.2 °F 88% 29.82 in 10.0 mi North 4.6 mph - N/A   Scattered Clouds
12:35 PM 53.6 °F - 50.0 °F 88% 29.82 in 10.0 mi North 5.8 mph - N/A   Clear
12:54 PM 53.6 °F - 51.8 °F 94% 29.81 in 10.0 mi North 8.1 mph - N/A   Clear
1:15 PM 55.4 °F - 51.8 °F 88% 29.82 in 10.0 mi North 9.2 mph - N/A   Scattered Clouds
1:34 PM 57.2 °F - 53.6 °F 88% 29.81 in 10.0 mi North 15.0 mph - N/A   Mostly Cloudy
1:55 PM 55.4 °F - 53.6 °F 94% 29.82 in 10.0 mi North 17.3 mph 23.0 mph N/A   Overcast
2:15 PM 53.6 °F - 53.6 °F 100% 29.83 in 10.0 mi North 23.0 mph 27.6 mph N/A   Overcast
2:35 PM 53.6 °F - 51.8 °F 94% 29.86 in 10.0 mi North 19.6 mph - N/A   Mostly Cloudy
2:55 PM 53.6 °F - 51.8 °F 94% 29.87 in 10.0 mi North 19.6 mph - N/A   Mostly Cloudy
3:15 PM 53.6 °F - 50.0 °F 88% 29.86 in 10.0 mi North 21.9 mph - N/A   Scattered Clouds
3:35 PM 53.6 °F - 48.2 °F 82% 29.87 in 10.0 mi North 17.3 mph - N/A   Clear
3:55 PM 51.8 °F - 48.2 °F 88% 29.89 in 10.0 mi North 17.3 mph - N/A   Clear
4:15 PM 51.8 °F - 48.2 °F 88% 29.90 in 10.0 mi North 18.4 mph - N/A   Clear
4:35 PM 51.8 °F - 48.2 °F 88% 29.90 in 10.0 mi North 17.3 mph - N/A   Clear
4:55 PM 50.0 °F - 46.4 °F 87% 29.91 in 10.0 mi North 19.6 mph 24.2 mph N/A   Clear
5:14 PM 48.2 °F - 46.4 °F 93% 29.91 in 10.0 mi North 17.3 mph - N/A   Clear
5:35 PM 48.2 °F - 46.4 °F 93% 29.93 in 10.0 mi North 13.8 mph - N/A   Clear
5:55 PM 46.4 °F 40.4 °F 46.4 °F 100% 29.93 in 10.0 mi North 13.8 mph - N/A   Clear
6:14 PM 46.4 °F 41.1 °F 46.4 °F 100% 29.94 in 10.0 mi North 11.5 mph - N/A   Clear
6:35 PM 46.4 °F 40.4 °F 46.4 °F 100% 29.94 in 10.0 mi North 13.8 mph - N/A   Clear
6:55 PM 46.4 °F 40.4 °F 46.4 °F 100% 29.96 in 10.0 mi North 13.8 mph - N/A   Scattered Clouds
7:15 PM 46.4 °F 40.4 °F 46.4 °F 100% 29.97 in 10.0 mi North 13.8 mph - N/A   Scattered Clouds
7:35 PM 46.4 °F 41.1 °F 46.4 °F 100% 29.97 in 10.0 mi North 11.5 mph - N/A   Clear
7:54 PM 46.4 °F 40.4 °F 46.4 °F 100% 29.98 in 10.0 mi North 13.8 mph - N/A   Clear
8:15 PM 46.4 °F 40.7 °F 46.4 °F 100% 29.99 in 10.0 mi North 12.7 mph - N/A   Clear
8:35 PM 46.4 °F 40.4 °F 44.6 °F 93% 30.00 in 10.0 mi North 13.8 mph - N/A   Clear
8:55 PM 46.4 °F 40.4 °F 44.6 °F 93% 30.00 in 10.0 mi North 13.8 mph - N/A   Clear
9:15 PM 46.4 °F 41.5 °F 46.4 °F 100% 30.00 in 10.0 mi North 10.4 mph - N/A   Clear
9:35 PM 44.6 °F 38.8 °F 44.6 °F 100% 30.01 in 10.0 mi North 11.5 mph - N/A   Clear
9:54 PM 44.6 °F 38.4 °F 44.6 °F 100% 30.00 in 10.0 mi North 12.7 mph - N/A   Clear
10:15 PM 44.6 °F 38.1 °F 44.6 °F 100% 30.01 in 10.0 mi North 13.8 mph - N/A   Clear
10:35 PM 44.6 °F 38.8 °F 44.6 °F 100% 30.02 in 10.0 mi North 11.5 mph - N/A   Clear
10:54 PM 44.6 °F 38.1 °F 44.6 °F 100% 30.03 in 10.0 mi North 13.8 mph - N/A   Clear
11:15 PM 44.6 °F 38.8 °F 44.6 °F 100% 30.04 in 10.0 mi North 11.5 mph - N/A   Clear
11:34 PM 44.6 °F 39.2 °F 44.6 °F 100% 30.04 in 10.0 mi North 10.4 mph - N/A   Clear
11:55 PM 44.6 °F 40.2 °F 44.6 °F 100% 30.04 in 10.0 mi North 8.1 mph - N/A   Clear